Location: Gull Harbor
(47.1000°N, 122.9000°W)
Time: 18:30:35
(UTC-08:00)

BlueWalker 3 - Pass Details

Date: 23 December 2025
Orbit: 452 x 463 km, 53.2° (Epoch: 13 January)

Event Time Altitude Azimuth Distance (km) Brightness Sun altitude
Exits shadow 05:54:00 19° 203° (SSW) 1,150 3.6 -19.7°
Maximum altitude 05:56:11 40° 141° (SE) 677 2.9 -19.3°
Drops below altitude 10° 05:59:34 10° 71° (ENE) 1,597 5.3 -18.8°
Sets 06:01:47 0° 64° (ENE) 2,476 6.2 -18.4°
